Location: Gisborne
(38.6530°S, 178.0040°E)
Time: 00:29:14
(UTC+12:00)

Cosmos 1844 Rocket - Pass Details

Date: 24 January 2019
Orbit: 826 x 843 km, 71.0° (Epoch: 19 April)

Event Time Altitude Azimuth Distance (km) Brightness Sun altitude
Rises 22:52:08 0° 198° (SSW) 3,411 7.1 -22.5°
Reaches altitude 10° 22:54:40 10° 193° (SSW) 2,474 6.0 -22.9°
Maximum altitude 23:00:13 52° 116° (ESE) 1,041 3.0 -23.5°
Enters shadow 23:01:13 46° 82° (E) 1,118 3.0 -23.6°
